COSMOS 1275 DEB, 13809

Orbit data source: Space-Track

COSMOS 1275 DEB, 13809 is space debris in LEO originally from a launch on Thu, 04 Jun 1981 UTC launched from the Plesetsk Missile And Space Complex (PKMTR). Debris objects in space refer to the collection of defunct objects orbiting the Earth. Examples of debris include non-operational satellites, rocket bodies, and fragments generated from explosions, collisions, or faulty payload assembly.

Loading next visibility...
Identifier
13809, 1981-053HD
Orbit
LEO
Country
Flag of CISCIS
Related business
Manufacturer
Unknown
Mission
Spacecraft
Bus & Motor
Unknown
Mass
Unknown
Launch date (UTC)
1981-06-04 (45 years ago)
Launch vehicle
Unknown
Launch site
Plesetsk Missile And Space Complex (PKMTR)
Object type
Payload
Rocket body
Debris
Shape & HBR
Unknown shape, 0.1 m
Radar Cross Section
Small (<0.1 m²)

Expand to show TLE details & history
Last TLE update: 12 hours ago

TLE from 12 hours ago
0 COSMOS 1275 DEB
1 13809U 81053HD  26037.15012915  .00072349  00000-0  42471-2 0  9995
2 13809  82.7973 107.6502 0011540 222.7299 137.3036 15.11346986255924
Epoch: 2026-02-06T03:36Z
TLE epoch observation values (Epoch: 2026-02-06T03:36:11.158Z)
Latitude
-0°
Longitude
-82.68843°
Altitude
541.042 km
Speed
7.589 km/s
True Right ascension
07h 10m 36s
True Declination
0° 00' 00"
Sunlit
Object was in full shadow at epoch
Visualization orbit readout
Latitude
Unknown
Longitude
Unknown
Altitude
Unknown
Speed
Unknown
Apparent Right ascension
Unknown
Apparent Declination
Unknown
Sunlit
N/A
Visualization observer readout
Local Sidereal Time
18:01:04
Azimuth
Unknown
Elevation
Unknown
Doppler factor
Unknown
Orbital elements
Apogee altitude
537.031 km
Perigee altitude
521.089 km
Semi-major axis
6,907.197 km
Eccentricity
0.00115
Inclination
82.7973°
RAAN
107.6502°
Arg. of periapsis
222.7299°
True anomaly
137.39318°
Mean anomaly
137.3036°
Eccentric anomaly
137.3484°
Mean motion
3.78086 °/min
Orbital period
95.22 mins
BSTAR
0.0042471
Loading maneuver chart data...
Computing Atmospheric mass density...
Loading historical data...
Loading historical data...
Loading historical data...
Loading historical data...
Loading historical data...
Loading historical data...
Loading historical data...

Documentation

Showing up to 5 results
|